カタログに戻る

FLOCK 4G 2

運用中科学SSO
NORAD 62661·PAYLOAD·🇺🇸 United States

打ち上げ Jan 14, 2025 から Vandenberg Space Force Base

Loading…

次のパス (今後24時間)

TLE

最新Source: CelesTrak SupGP

元期: Sep 14, 2026, 14:44 UTC

1 62661C 25009BE  26257.61417824  .00009458  00000+0  31269-3 0  2578
2 62661  97.3949 339.3429 0004255  20.2499 157.8271 15.31403573    13

AllMySatでFLOCK 4G 2をリアルタイム追跡

Download on the App Store